Weather in Muravlyanka

Russia / Ryazan Oblast     53°44′26″N   38°59′15″E
temp.,
°C
wind,
m/s
gust,
m/s
humid.,
%
clouds,
%
prec.,
mm/h
press.,
hPa
HPBL,
m
27 february, sat
sat2700:00+1w7159267 0.0 1006606
03:000w8159079 0.0 1005604
06:00+1wnw8159279 0.0 1004880
09:00+1wnw9159687 0.1 1005877
12:00−1nnw91590100 0.2 1006819
15:00−5nnw7128780 0.2 1009545
18:00−6nnw499497 0.0 1011213
21:00−8nnw369683 0.0 1013143
28 february, sun
sun2800:00−6nnw389591 0.1 1014286
03:00−8nnw489676 0.1 1015195
06:00−8nw339687 0.0 101560
09:00−6nw239784 0.1 1015149
12:00−3nnw239388 0.1 1015278
15:00−2nnw259387 0.1 1015407
18:00−5n239568 0.0 101648
21:00−5nne229581 0.0 101960
1 march, mon
mon100:00−4nne129697 0.0 102045
03:00−5ne119499 0.1 102321
06:00−8nnw229593 0.0 102421
09:00−7wnw229693 0.1 102647
12:00−4w249577 0.0 1025244
15:00−2wsw469483 0.0 1025403
18:00−2wsw499299 0.0 1023409
21:00−3wsw5129699 0.1 1022365
2 march, tue
tue200:00−1wsw61292100 0.0 1019523
03:000wsw81496100 0.4 1016564
06:00+1w81495100 0.1 1012808
09:00+1wnw81498100 0.3 1010851
12:00+1nw8138896 0.1 1011994
15:000nw7138590 0.3 1011978
18:00−1nw6148853 0.0 1012569
21:00−2nw6148968 0.1 1013574
3 march, wed
wed300:00−2nw6148797 0.1 1013634
03:00−3nw6139595 0.1 1014576
06:00−4nw6129598 0.2 1014610
09:00−4nnw7148899 0.4 1016781
12:00−3nnw7128584 0.0 1018806
15:00−2nw6109559 0.1 1019757
18:00−3nw5129099 0.3 1019563
21:00−6nw4119066 0.3 1021247